Zurück zum Katalog

STARLINK-31441

AktivKommunikationVLEO
NORAD 60091·PAYLOAD·🇺🇸 United States

Gestartet Jun 23, 2024 von Cape Canaveral Space Force Station

Loading…

Nächste Überflüge (nächste 24 Stunden)

TLE

AktuellSource: CelesTrak SupGP

Epoche: Sep 15, 2026, 02:38 UTC

1 60091C 24117A   26258.11020833 -.00039439  00000+0 -11651-2 0  2585
2 60091  53.1578 234.9680 0001439  92.3688 148.1204 15.34413605    15

Verfolge STARLINK-31441 in Echtzeit mit AllMySat

Download on the App Store